Weather History for KLEW - November, 2012

Change the Weather History Date:

Friday, November 9, 2012

  Actual Average Record
Temperature  
Mean Temperature 39 °F -  
Max Temperature 48 °F 44 °F 66 °F (2006)
Min Temperature 30 °F 28 °F 17 °F (2003)
Degree Days  
Heating Degree Days 26    
Moisture  
Dew Point 27 °F    
Average Humidity 62    
Maximum Humidity 93    
Minimum Humidity 37    
Precipitation  
Precipitation 0.00 in - - ()
Sea Level Pressure  
Sea Level Pressure 29.89 in    
Wind  
Wind Speed 10 mph (NW)    
Max Wind Speed 20 mph    
Max Gust Speed 26 mph    
Visibility 10 miles    
Events      
Averages and records for this station are not official NWS values.
T = Trace of Precipitation, MM = Missing Value Source: NWS Daily Summary

Daily Weather History Graph

Daily Weather History Graph

Search for Another Location

Airport or City:

Trip Planner

Search our weather history database for the weather conditions in past years. The results will help you decide how hot, cold, wet, or windy it might be!

Date:

Astronomy

Nov. 09, 2012 Rise Set
Actual Time 6:28 AM EST 4:20 PM EST
Civil Twilight 5:58 AM EST 4:51 PM EST
Nautical Twilight 5:23 AM EST 5:25 PM EST
Astronomical Twilight 4:49 AM EST 5:59 PM EST
Moon 1:14 AM EST (11/9) 1:40 PM EST (11/9)
Length of Visible Light 10h 53m
Length of Day
9h 51m
Waning Crescent, 23% of the Moon is Illuminated
Nov 9
Waning Crescent
Nov 13
New
Nov 20
First Quarter
Nov 28
Full
Dec 6
Last Quarter

Hourly Weather History & Observations

Time (EST) Temp. Windchill Dew Point Humidity Pressure Visibility Wind Dir Wind Speed Gust Speed Precip Events Conditions
12:35 AM 37.4 °F 29.3 °F 32.0 °F 81% 29.74 in 10.0 mi North 12.7 mph - N/A   Overcast
12:55 AM 37.4 °F 29.8 °F 32.0 °F 81% 29.74 in 10.0 mi North 11.5 mph - N/A   Overcast
1:15 AM 37.4 °F 30.3 °F 32.0 °F 81% 29.75 in 10.0 mi North 10.4 mph - N/A   Overcast
1:35 AM 37.4 °F 31.4 °F 32.0 °F 81% 29.75 in 10.0 mi NNW 8.1 mph - N/A   Overcast
1:55 AM 37.4 °F 32.1 °F 32.0 °F 81% 29.75 in 10.0 mi NNW 6.9 mph - N/A   Overcast
2:15 AM 37.4 °F 29.3 °F 30.2 °F 75% 29.75 in 10.0 mi North 12.7 mph 18.4 mph N/A   Overcast
2:35 AM 37.4 °F 28.9 °F 30.2 °F 75% 29.75 in 10.0 mi NNW 13.8 mph - N/A   Overcast
2:55 AM 37.4 °F 29.8 °F 28.4 °F 70% 29.75 in 10.0 mi North 11.5 mph 19.6 mph N/A   Overcast
3:35 AM 37.4 °F 29.8 °F 28.4 °F 70% 29.76 in 10.0 mi NNW 11.5 mph 19.6 mph N/A   Overcast
4:15 AM 37.4 °F 32.1 °F 28.4 °F 70% 29.77 in 10.0 mi NW 6.9 mph - N/A   Overcast
4:35 AM 35.6 °F 29.2 °F 28.4 °F 75% 29.77 in 10.0 mi NW 8.1 mph - N/A   Overcast
4:55 AM 35.6 °F 28.6 °F 28.4 °F 75% 29.78 in 10.0 mi NNW 9.2 mph - N/A   Overcast
5:15 AM 37.4 °F 29.3 °F 28.4 °F 70% 29.78 in 10.0 mi NNW 12.7 mph - N/A   Overcast
5:35 AM 37.4 °F 29.8 °F 28.4 °F 70% 29.79 in 10.0 mi NNW 11.5 mph 20.7 mph N/A   Overcast
5:55 AM 37.4 °F 29.8 °F 28.4 °F 70% 29.80 in 10.0 mi NNW 11.5 mph 17.3 mph N/A   Mostly Cloudy
6:15 AM 37.4 °F 27.8 °F 28.4 °F 70% 29.80 in 10.0 mi NNW 17.3 mph - N/A   Scattered Clouds
6:55 AM 37.4 °F 27.8 °F 28.4 °F 70% 29.82 in 10.0 mi NNW 17.3 mph - N/A   Mostly Cloudy
7:15 AM 37.4 °F 28.9 °F 28.4 °F 70% 29.83 in 10.0 mi NW 13.8 mph - N/A   Overcast
7:35 AM 37.4 °F 28.5 °F 28.4 °F 70% 29.84 in 10.0 mi NNW 15.0 mph 23.0 mph N/A   Mostly Cloudy
7:55 AM 37.4 °F 29.8 °F 28.4 °F 70% 29.85 in 10.0 mi NNW 11.5 mph 19.6 mph N/A   Overcast
8:15 AM 39.2 °F 32.0 °F 28.4 °F 65% 29.85 in 10.0 mi NNW 11.5 mph 20.7 mph N/A   Overcast
8:35 AM 39.2 °F 34.2 °F 28.4 °F 65% 29.85 in 10.0 mi NNW 6.9 mph - N/A   Partly Cloudy
8:55 AM 41.0 °F 33.5 °F 28.4 °F 61% 29.85 in 10.0 mi NW 13.8 mph - N/A   Clear
9:16 AM 42.8 °F 36.6 °F 28.4 °F 57% 29.85 in 10.0 mi WNW 11.5 mph - N/A   Partly Cloudy
9:55 AM 42.8 °F 34.5 °F 28.4 °F 57% 29.87 in 10.0 mi NW 18.4 mph 24.2 mph N/A   Clear
10:15 AM 42.8 °F 34.3 °F 28.4 °F 57% 29.88 in 10.0 mi NNW 19.6 mph 26.5 mph N/A   Partly Cloudy
10:35 AM 42.8 °F 35.1 °F 28.4 °F 57% 29.88 in 10.0 mi NNW 16.1 mph 24.2 mph N/A   Clear
10:55 AM 44.6 °F 38.4 °F 28.4 °F 53% 29.87 in 10.0 mi NNW 12.7 mph 18.4 mph N/A   Clear
11:15 AM 44.6 °F 37.8 °F 28.4 °F 53% 29.87 in 10.0 mi NW 15.0 mph - N/A   Clear
11:35 AM 44.6 °F 37.8 °F 28.4 °F 53% 29.86 in 10.0 mi NNW 15.0 mph 21.9 mph N/A   Mostly Cloudy
11:55 AM 44.6 °F 38.1 °F 28.4 °F 53% 29.86 in 10.0 mi NNW 13.8 mph 18.4 mph N/A   Scattered Clouds
12:15 PM 46.4 °F 41.1 °F 28.4 °F 50% 29.86 in 10.0 mi WNW 11.5 mph 19.6 mph N/A   Clear
12:35 PM 46.4 °F 40.4 °F 28.4 °F 50% 29.86 in 10.0 mi NW 13.8 mph 20.7 mph N/A   Clear
12:55 PM 46.4 °F 40.7 °F 28.4 °F 50% 29.87 in 10.0 mi NW 12.7 mph 24.2 mph N/A   Clear
1:15 PM 46.4 °F 40.1 °F 26.6 °F 46% 29.87 in 10.0 mi NNW 15.0 mph 24.2 mph N/A   Clear
1:55 PM 48.2 °F - 28.4 °F 46% 29.87 in 10.0 mi NNW 9.2 mph - N/A   Clear
2:15 PM 48.2 °F - 26.6 °F 43% 29.87 in 10.0 mi NW 11.5 mph - N/A   Clear
2:35 PM 48.2 °F - 26.6 °F 43% 29.88 in 10.0 mi NW 6.9 mph - N/A   Clear
2:55 PM 48.2 °F - 23.0 °F 37% 29.89 in 10.0 mi NW 10.4 mph 21.9 mph N/A   Clear
3:15 PM 46.4 °F 42.4 °F 24.8 °F 43% 29.90 in 10.0 mi NNW 8.1 mph - N/A   Clear
3:35 PM 46.4 °F 43.5 °F 24.8 °F 43% 29.91 in 10.0 mi NW 5.8 mph - N/A   Clear
3:55 PM 46.4 °F 41.5 °F 23.0 °F 40% 29.91 in 10.0 mi NW 10.4 mph - N/A   Clear
4:35 PM 44.6 °F 38.4 °F 21.2 °F 39% 29.94 in 10.0 mi NW 12.7 mph 21.9 mph N/A   Clear
4:55 PM 44.6 °F 39.7 °F 19.4 °F 37% 29.95 in 10.0 mi NW 9.2 mph 20.7 mph N/A   Clear
5:15 PM 42.8 °F 37.0 °F 19.4 °F 39% 29.95 in 10.0 mi NW 10.4 mph - N/A   Clear
5:35 PM 42.8 °F 40.1 °F 21.2 °F 42% 29.96 in 10.0 mi NW 4.6 mph - N/A   Clear
5:55 PM 41.0 °F - 21.2 °F 45% 29.97 in 10.0 mi Calm Calm - N/A   Clear
6:15 PM 39.2 °F - 21.2 °F 49% 29.97 in 10.0 mi Calm Calm - N/A   Clear
6:35 PM 37.4 °F - 21.2 °F 52% 29.97 in 10.0 mi Calm Calm - N/A   Clear
6:55 PM 35.6 °F 32.8 °F 21.2 °F 56% 29.98 in 10.0 mi WSW 3.5 mph - N/A   Clear
7:15 PM 35.6 °F - 24.8 °F 65% 29.98 in 10.0 mi Calm Calm - N/A   Clear
7:35 PM 37.4 °F 33.8 °F 24.8 °F 60% 29.99 in 10.0 mi NW 4.6 mph - N/A   Clear
7:55 PM 35.6 °F - 24.8 °F 65% 30.00 in 10.0 mi Calm Calm - N/A   Partly Cloudy
8:15 PM 32.0 °F - 23.0 °F 69% 30.00 in 10.0 mi Calm Calm - N/A   Scattered Clouds
8:35 PM 37.4 °F 34.9 °F 26.6 °F 65% 30.00 in 10.0 mi NNW 3.5 mph - N/A   Partly Cloudy
8:55 PM 33.8 °F - 26.6 °F 75% 30.00 in 10.0 mi Calm Calm - N/A   Clear
9:15 PM 37.4 °F 32.1 °F 26.6 °F 65% 30.00 in 10.0 mi NW 6.9 mph - N/A   Clear
9:35 PM 39.2 °F 32.5 °F 28.4 °F 65% 30.01 in 10.0 mi NNW 10.4 mph - N/A   Clear
9:55 PM 39.2 °F 35.9 °F 28.4 °F 65% 30.00 in 10.0 mi NW 4.6 mph - N/A   Clear
10:15 PM 39.2 °F 37.0 °F 28.4 °F 65% 30.01 in 10.0 mi NNW 3.5 mph - N/A   Clear
10:35 PM 37.4 °F 33.8 °F 28.4 °F 70% 30.02 in 10.0 mi NNW 4.6 mph - N/A   Clear
10:55 PM 35.6 °F 30.7 °F 26.6 °F 70% 30.03 in 10.0 mi NNW 5.8 mph - N/A   Clear
11:16 PM 35.6 °F 32.8 °F 28.4 °F 75% 30.03 in 10.0 mi West 3.5 mph - N/A   Clear
11:35 PM 30.2 °F 25.4 °F 28.4 °F 93% 30.02 in 10.0 mi South 4.6 mph - N/A   Clear
11:55 PM 33.8 °F 27.7 °F 28.4 °F 81% 30.02 in 10.0 mi SSE 6.9 mph - N/A   Clear